Location: Alpha Ridge Park
(39.3209°N, 76.9128°W)
Time: 13:26:56
(UTC-04:00)

S-56A Canister/Altair - Pass Details

Date: 21 May 2019
Orbit: 633 x 2499 km, 38.9° (Epoch: 18 June)

Event Time Altitude Azimuth Distance (km) Brightness Sun altitude
Rises 09:23:09 0° 285° (WNW) 5,099 11.3 39.2°
Reaches altitude 10° 09:26:27 10° 279° (W) 4,337 11.0 39.9°
Maximum altitude 09:37:33 40° 216° (SW) 3,106 10.8 42.0°
Drops below altitude 10° 09:50:53 10° 154° (SSE) 5,154 12.3 44.5°
Sets 09:55:15 0° 147° (SSE) 6,127 12.6 45.4°
